Regional Weather Roundup
Issued by NWS

Home | Current Version | Previous Version | Graphics & Text | Print | Product List | Glossary On
Versions: 1 2 3 4 5 6 7 8 9 10 11 12 13 14 15 16 17 18 19 20 21 22 23 24 25 26 27 28
000
ASUS45 KBOU 241010
RWRCO

WEATHER ROUNDUP FOR COLORADO
NATIONAL WEATHER SERVICE DENVER/BOULDER CO
400 AM MDT THU MAY 24 2018

NOTE: "FAIR" INDICATES FEW OR NO CLOUDS BELOW 12000 FEET WITH NO
SIGNIFICANT WEATHER AND/OR OBSTRUCTIONS TO VISIBILITY.

COZ001>005-013-030-031-241100-
...NORTHWEST COLORADO...

CITY           SKY/WX    TMP DP  RH WIND       PRES   REMARKS
CRAIG          FAIR      35  33  92 CALM      30.17F
HAYDEN         FAIR      43  35  73 E12       30.20S
MEEKER         FAIR      40  34  79 NE6       30.19S
RANGELY        FAIR      47  36  63 CALM      30.13R
RABBIT EARS PA FAIR      37  28  70 W7        30.37S
STEAMBOAT SPGS FAIR      39  35  86 CALM      30.21S
WALDEN         FAIR      34  28  80 CALM      30.27S
$$

COZ006>008-011-241100-
...WEST CENTRAL VALLEYS...

CITY           SKY/WX    TMP DP  RH WIND       PRES   REMARKS
GRAND JUNCTION FAIR      51  26  37 E7        30.09R
MONTROSE       FAIR      48  23  37 SE8       30.16R
EAGLE          FAIR      41  25  53 CALM      30.24R
RIFLE          FAIR      47  29  49 E3        30.15R
DELTA          FAIR      52  24  33 NE8       30.13R
NUCLA          FAIR      48  19  32 E9        30.19R
$$

COZ017>023-064>068-241100-
...SOUTHWEST COLORADO...

CITY           SKY/WX    TMP DP  RH WIND       PRES   REMARKS
DURANGO        FAIR      43  23  45 SW12      30.20R
CORTEZ         FAIR      41  25  53 E5        30.17R
PAGOSA SPRINGS FAIR      40  20  43 CALM      30.26R
TELLURIDE      FAIR      42  22  46 SE8       30.35S
WOLF CREEK PAS FAIR      37  14  38 SW5       30.53R
$$

COZ009-010-012-014-032>034-037-058>063-241100-
...CENTRAL COLORADO...

CITY           SKY/WX    TMP DP  RH WIND       PRES   REMARKS
ASPEN          FAIR      42  24  49 S7        30.25R
BUENA VISTA    FAIR      44  23  44 NW13      30.26S
COPPER MTN     FAIR      41  19  42 W6        30.46S
BERTHOUD PASS  FAIR      34  25  69 W16G23    30.47F WCI  23
COTTONWOOD PAS FAIR      54  16  22 W8        30.36R
GUNNISON       FAIR      36  24  62 NW5       30.30R
GRANBY         FAIR      34  28  79 CALM      30.29S
KREMMLING      FAIR      37  34  87 CALM      30.27R
LEADVILLE      FAIR      30  20  66 CALM      30.35S
MONARCH PASS   FAIR      37  16  41 MISG      30.57S
SALIDA         FAIR      49  24  37 CALM      30.32R
SUNLIGHT       FAIR      39  16  38 SW5       30.43S
WILKERSON PASS FAIR      45  14  29 CALM      30.46S
$$

COZ069>075-241100-
...SAN LUIS VALLEY/SANGRE DE CRISTO MOUNTAINS...

CITY           SKY/WX    TMP DP  RH WIND       PRES   REMARKS
ALAMOSA        FAIR      44  28  53 E7        30.23R
DEL NORTE      FAIR      46  22  38 W14       30.27R
LA VETA PASS   FAIR      45  32  61 MISG      30.49R
SAGUACHE       NOT AVBL
$$

COZ035-036-038>040-241100-
...NORTHERN COLORADO FRONT RANGE...

CITY           SKY/WX    TMP DP  RH WIND       PRES   REMARKS
DENVER INTL AP FAIR      52  45  77 W7        30.09R
AURORA         PTCLDY    54  44  69 SW3       30.10R
FRONT RANGE AP FAIR      52  47  83 W8        30.10R
ERIE MUNI ARPT FAIR      49  45  83 CALM      30.12S
BOULDER MUN AP FAIR      59  41  51 W3        30.07R
CENTENNIAL     FAIR      53  41  63 W7        30.11R
BROOMFIELD     FAIR      55  41  58 CALM      30.10R
FORT COLLINS   FAIR      53  45  74 SE9       30.08R
LONGMONT       FAIR      53  44  74 CALM      30.09R
$$

COZ041-046-047-076>085-087-088-241100-
...PIKES PEAK/PALMER DIVIDE AND SOUTHERN FOOTHILLS...

CITY           SKY/WX    TMP DP  RH WIND       PRES   REMARKS
COLO. SPRINGS  FAIR      62  41  46 NW12      30.11S
A. F. ACADEMY  FAIR      51  40  68 N7        30.14R
SCHRIEVER AFB  NOT AVBL
CHEYENNE MTN   FAIR      63  23  22 NW9       30.10R
ELLICOTT         N/A    N/A N/A N/A N9        30.09R
FALCON         NOT AVBL
FORT CARSON    FAIR      59  40  49 NW12      30.08R
LIMON          FAIR      50  47  89 W8        30.05R
MONUMENT HILL  FAIR      46  37  71 W9        30.19R
CANON CITY     FAIR      63  32  31 W16       30.06R
WALSENBURG     FAIR      55  34  44 S6        30.12R
TRINIDAD       FAIR      61  52  72 SW20      30.10F
$$

COZ042>045-048>051-090-091-241100-
...NORTHEAST COLORADO...

CITY           SKY/WX    TMP DP  RH WIND       PRES   REMARKS
GREELEY ARPT   FAIR      53  46  77 W6        30.06
AKRON          FAIR      55  52  89 N6        30.01R
BURLINGTON     FAIR      57  51  80 SE8       30.00R
WRAY           FAIR      63  52  67 SW3       29.96S
YUMA           FAIR      57  46  67 W6        29.98S
STERLING       FAIR      54  52  94 CALM      29.99F
HOLYOKE        FAIR      64  57  77 SW8       29.97S
FORT MORGAN    FAIR      54  48  81 N9        30.02F
$$

COZ086-089-092>099-241100-
...SOUTHEAST COLORADO...

CITY           SKY/WX    TMP DP  RH WIND       PRES   REMARKS
PUEBLO         FAIR      54  45  71 NW5       30.04R
LA JUNTA       FAIR      70  54  56 SW21      29.99R
LAMAR          FAIR      66  51  58 SW17      29.97R
SPRINGFIELD      N/A     59  50  72 S18G30    30.07R
$$




USA.gov is the U.S. government's official web portal to all federal, state and local government web resources and services.